sat.trackr.live / text

‹ back to catalog

STARLINK-1337

NORAD 45582 · 2020-025BD

PAYLOAD ACTIVE UNKNOWN

§ Identity

Operator
Country
US
Launch date
2020-04-22
Launch site
AFETR
Launch vehicle
Mass (kg)
RCS (m²)

Purposes: comms

External: N2YO · Heavens-Above · Gunter

§ Orbital elements

Epoch: 2026-09-15T00:00:02.000160Z

Period
90.17 min
Inclination
53.0345°
Eccentricity
0.0005649
Mean motion
15.96950006 rev/d
Perigee alt
279.1 km
Apogee alt
286.6 km
Semi-major
6,661.0 km
B*
4.4732e-4
RAAN
197.8833°
Arg perigee
89.3088°
Mean anomaly
89.3188°
Rev number
610

§ Raw data

STARLINK-13371 45582U 20025BD  26258.00002315  .00195112  26355-4  44732-3 0  99942 45582  53.0345 197.8833 0005649  89.3088  89.3188 15.96950006  6100

JSON: /api/v1/satellites/45582 · /tle

For live sub-satellite position, see the globe view (requires WebGL).

§ Visibility from observer

Set your observer location to see the next 7 days of passes ≥ 10°. The values pass through the URL so the page stays shareable.

No JS? Fill the form by hand. The geolocation button needs JavaScript.